Regional Weather Roundup
Issued by NWS Albany, NY

Home | Current Version | Previous Version | Text Only | Print | Product List | Glossary On
Versions: 1 2 3 4 5 6 7 8 9 10 11 12 13 14 15 16 17 18 19 20 21 22 23 24 25 26 27 28 29 30 31 32 33 34 35 36 37 38 39 40 41 42 43 44 45 46 47 48 49 50
000
ASUS41 KALY 270610
RWRALY

NEW YORK STATE HOURLY WEATHER ROUNDUP
NATIONAL WEATHER SERVICE ALBANY NY
200 AM EDT MON MAR 27 2017

NOTE: "FAIR" INDICATES FEW OR NO CLOUDS BELOW 12,000 FEET WITH NO
SIGNIFICANT WEATHER AND/OR NO OBSTRUCTIONS TO VISIBILITY.

NYZ032-033-038>043-046>054-057>066-NYZ062>081-082-084-270700-
EAST


CITY           SKY/WX    TMP DP  RH WIND       PRES   REMARKS
ALBANY         CLOUDY    37  29  72 S16G25    30.23F WCI  28
GLENS FALLS    CLOUDY    33  30  88 CALM      30.23F
POUGHKEEPSIE   CLOUDY    35  33  92 CALM      30.26F
NEWBURGH       CLOUDY    36  36 100 E7        30.27F FOG     WCI  30
MONTGOMERY     LGT RAIN  36  35  96 NE5       30.24F FOG     WCI  32
WHITE PLAINS   DRIZZLE   36  34  92 E9        30.25F FOG     WCI  29
ISLIP          CLOUDY    38  38 100 E7        30.26F FOG     WCI  33
NEW YORK CITY  DRIZZLE   39  37  92 NE13      30.26F FOG     WCI  31
CENTRAL PARK   CLOUDY    38  37  97 E9        30.28F FOG     WCI  31
$$

NYZ005>009-017-018-044>046-055-056-270700-
CENTRAL


CITY           SKY/WX    TMP DP  RH WIND       PRES   REMARKS
FULTON         CLOUDY    38  35  89 VRB5      30.05F WCI  34
SYRACUSE       LGT RAIN  39  37  92 E12       30.05F WCI  32
ROME           LGT RAIN  35  34  96 E7        30.14F WCI  29
ELMIRA         LGT RAIN  43  37  79 CALM      30.08F
BINGHAMTON     LGT RAIN  34  33  96 S13       30.08F FOG     WCI  25
MONTICELLO     CLOUDY    32  30  93 E6        30.21F WCI  26
$$

NYZ026>034-041>043-087-270700-
NORTH


CITY           SKY/WX    TMP DP  RH WIND       PRES   REMARKS
WATERTOWN      CLOUDY    43  40  89 VRB3      30.03F
FORT DRUM      NOT AVBL
MASSENA        CLOUDY    34  31  88 NE8       30.10F WCI  27
SARANAC LAKE   CLOUDY    35  35 100 W5        30.05F WCI  31
PLATTSBURGH    CLOUDY    38  30  73 S16G24    30.14F WCI  29
$$

NYZ001>004-010>016-019>021-085-270700-
WEST


CITY           SKY/WX    TMP DP  RH WIND       PRES   REMARKS
NIAGARA FALLS  MOCLDY    50  43  77 S13       29.91F
BUFFALO        CLOUDY    49  43  80 S12       29.92F
DUNKIRK        CLOUDY    51  45  79 S21G32    29.90F
JAMESTOWN      CLOUDY    45  41  87 S10       29.95S
WELLSVILLE     CLOUDY    42  39  89 S7        30.01F
ROCHESTER      LGT RAIN  47  42  83 S12       29.96F
PENN YAN       LGT RAIN  43  37  79 S14G22    30.02F
$$

             KEY
       WCI = WIND CHILL INDEX
       VSB = VISIBILITY
       HX  = HEAT INDEX
$$



USA.gov is the U.S. government's official web portal to all federal, state and local government web resources and services.